Home > Time Zones > World Clock > Weather > Russia > Perm > Past weeks

Flag for Russia Weather past 2 weeks in Perm, Russia

Now
23 °F

Overcast.


Feels Like: 11 °F
Forecast: 17 / 27 °F
Wind: 13 mph from Southwest

Location: Perm'/Bolshoe Savino

Current Time: Feb 1, 2015 at 1:50:50 PM

Latest Report: Feb 1, 2015 at 1:30 PM


Visibility: N/A

Pressure: 30.21 "Hg

Humidity: 80%

Dew point: 18 °F

Location of PermLocation

Historic Weather in Perm — Graph

°F

Perm temperature yesterday

Maximum temperature yesterday: 12 °F (at 3:30 PM)
Minimum temperature yesterday: -2 °F (at 9:00 AM)
Average temperature yesterday: 5 °F

Past Weeks' High & Low Weather Summary

 TemperatureHumidityPressure
High30 °F (Jan 19, 1:30 PM)100% (Jan 18, 9:30 AM)30.83 "Hg (Jan 18, 9:30 AM)
Low-27 °F (Jan 23, 9:00 AM)51% (Jan 28, 11:00 AM)29.71 "Hg (Jan 18, 8:30 PM)
Average7 °F78%30.25 "Hg
* Reported Jan 17 12:00 Noon — Feb 1 12:30 PM, Perm, Weather by CustomWeather, © 2014

Note: Actual official high and low records may vary slightly from our data, if they occured in-between our weather recording intervals... More about our weather records

Advertising

Perm weather history for previous 24 hours

 ConditionsComfort  
Time TempWeatherWind HumidityBarometerVisibility
12:30 PM
Feb 1
23 °FOvercast.10 mph86%30.18 "HgN/A
12:00 PM23 °FOvercast.13 mph86%30.18 "HgN/A
11:30 AM23 °FOvercast.8 mph86%30.18 "HgN/A
11:00 AM19 °FOvercast.6 mph86%30.18 "HgN/A
10:30 AM19 °FOvercast.6 mph86%30.18 "HgN/A
10:00 AM19 °FOvercast.1 mph86%30.18 "HgN/A
9:30 AM18 °FOvercast.1 mph86%30.18 "HgN/A
9:00 AM18 °FOvercast.1 mph86%30.18 "Hg6 mi
8:30 AM16 °FOvercast.3 mph86%30.18 "Hg6 mi
7:30 AM14 °FOvercast.1 mph92%30.18 "Hg4 mi
7:00 AM14 °FOvercast.6 mph92%30.18 "Hg6 mi
6:30 AM12 °FLow clouds.1 mph92%30.21 "Hg4 mi
6:00 AM12 °FOvercast.3 mph85%30.21 "Hg4 mi
5:30 AM12 °FLow clouds.3 mph85%30.21 "Hg4 mi
5:00 AM10 °FOvercast.3 mph92%30.21 "Hg4 mi
4:30 AM10 °FOvercast.3 mph92%30.21 "Hg4 mi
4:00 AM10 °FOvercast.3 mph85%30.21 "Hg4 mi
3:30 AM10 °FOvercast.3 mph85%30.21 "Hg4 mi
3:00 AM10 °FOvercast.1 mph85%30.24 "Hg6 mi
2:00 AM10 °FOvercast.3 mph85%30.24 "HgN/A
1:30 AM9 °FOvercast.3 mph85%30.24 "Hg4 mi
1:00 AM9 °FOvercast.6 mph85%30.24 "Hg5 mi
12:30 AM10 °FMostly cloudy.8 mph85%30.24 "Hg5 mi
12:00 AM9 °FMostly cloudy.1 mph85%30.24 "Hg6 mi
11:30 PM
Jan 31
9 °FPassing clouds.8 mph85%30.21 "HgN/A
11:00 PM9 °FPassing clouds.6 mph85%30.21 "HgN/A
10:30 PM10 °FPassing clouds.10 mph79%30.24 "HgN/A
10:00 PM3 °FPartly cloudy.3 mph78%30.24 "Hg4 mi
9:30 PM3 °FPassing clouds.3 mph78%30.24 "Hg4 mi
9:00 PM5 °FPassing clouds.3 mph78%30.24 "Hg5 mi
8:30 PM5 °FClear.6 mph78%30.24 "Hg10 mi
8:00 PM7 °FClear.8 mph72%30.24 "Hg10 mi
7:30 PM7 °FSunny.10 mph72%30.24 "Hg10 mi
7:00 PM7 °FPartly sunny.10 mph66%30.24 "HgN/A
6:30 PM7 °FBroken clouds.10 mph66%30.24 "HgN/A
6:00 PM9 °FPartly sunny.8 mph66%30.24 "HgN/A
5:30 PM9 °FPartly sunny.8 mph66%30.24 "HgN/A
5:00 PM9 °FPartly sunny.8 mph66%30.24 "HgN/A
4:30 PM9 °FBroken clouds.6 mph66%30.24 "HgN/A
4:00 PM10 °FSunny.6 mph61%30.24 "Hg10 mi
3:30 PM12 °FSunny.3 mph62%30.24 "Hg10 mi
3:00 PM10 °FSunny.6 mph67%30.24 "Hg10 mi
2:30 PM10 °FPartly sunny.3 mph61%30.24 "HgN/A
2:00 PM9 °FScattered clouds.3 mph66%30.24 "HgN/A
1:30 PM7 °FSunny.6 mph72%30.24 "Hg10 mi
1:00 PM7 °FSunny.3 mph72%30.24 "Hg10 mi
Weather by CustomWeather, © 2014

See weather overviewHow to use our weather pages